[[{"header":{"parameterUnit":"m.s-1","parameterCategory":1,"la1":30.2991,"la2":30.254,"lo1":-89.0895,"lo2":-89.0444,"dy":0.0017,"dx":0.0017,"nx":28,"ny":28,"refTime":"2023-09-05T09:00:00:Z","depth":0,"parameterNumber":2,"parameterNumberName":"U-component_of_WINDS"},"data":[0,0,0,0,0,0,0,0,0,0,0,0,0,0,0,0,0,0,0,0,0,0,0,0,0,0,0,0,0,0,0,0,0,0,0,0,0,0,0,0,0,0,0,0,0,0,0,0,0,0,0,0,0,0,0,0,0,0,-3.8577,-3.8578,0,-3.8609,-3.861,-3.861,-3.8548,-3.8546,-3.8544,-3.8542,-3.8574,-3.8576,-3.8579,0,0,0,0,0,0,0,0,0,0,0,0,0,-3.8461,-3.8464,-3.8577,-3.8578,-3.8578,-3.8609,-3.861,-3.861,-3.8549,-3.8546,-3.8544,-3.8542,-3.8573,-3.8576,-3.8579,0,0,0,0,0,0,0,0,0,0,0,0,0,-3.8505,-3.8465,-3.8577,-3.8551,-3.8549,-3.8609,-3.861,-3.861,-3.8549,-3.8546,-3.8543,-3.854,-3.8572,-3.8576,-3.858,-3.8666,0,0,-3.8592,-3.8594,0,0,0,0,0,0,0,0,-3.8502,-3.8509,-3.8555,-3.8553,-3.8551,-3.8572,-3.858,-3.8629,-3.855,-3.8549,-3.8542,-3.8539,-3.8575,-3.8579,-3.8592,-3.8667,-3.8669,-3.8593,-3.8595,-3.8597,-3.8598,0,0,0,0,0,0,0,-3.8499,-3.8507,-3.859,-3.8556,-3.8553,-3.8538,-3.854,-3.8589,-3.8579,-3.8549,-3.8545,-3.8549,-3.8574,-3.8588,-3.8592,-3.8669,-3.8592,-3.8596,-3.8599,-3.86,-3.8816,-3.8819,0,0,0,0,0,0,-3.85,-3.8505,-3.8589,-3.8591,-3.8519,-3.8542,-3.8545,-3.8568,-3.8578,-3.8577,-3.8552,-3.8546,-3.8582,-3.8587,-3.8593,-3.8693,-3.8597,-3.8601,-3.8603,-3.8813,-3.8817,-3.882,0,0,0,0,0,0,-3.8497,-3.8508,-3.8588,-3.8547,-3.8556,-3.8547,-3.8574,-3.8571,-3.8584,-3.8581,-3.8578,-3.8568,-3.858,-3.8587,-3.8648,-3.8693,-3.8602,-3.8606,-3.8809,-3.8814,-3.8819,-3.8896,0,0,0,0,0,0,-3.8494,-3.8507,-3.854,-3.8548,-3.8558,-3.8643,-3.8577,-3.8573,-3.8592,-3.8585,-3.8595,-3.8594,-3.8578,-3.8642,-3.8652,-3.8697,-3.8609,-3.8805,-3.8811,-3.8817,-3.8889,-3.8903,-3.8914,0,0,0,0,0,-3.8491,-3.8561,-3.8542,-3.8553,-3.86,-3.8646,-3.8652,-3.8633,-3.8596,-3.8628,-3.8626,-3.8594,-3.8687,-3.8649,-3.866,-3.8707,-3.8802,-3.8809,-3.8817,-3.8883,-3.89,-3.8914,0,0,0,0,0,0,-3.8558,-3.8561,-3.8541,-3.8616,-3.8631,-3.8635,-3.8676,-3.8651,-3.8677,-3.8669,-3.8644,-3.8647,-3.8712,-3.8716,-3.8673,-3.879,-3.8738,-3.8748,-3.8785,-3.8801,-3.8814,-3.8811,-3.8613,0,0,0,0,0,-3.8582,-3.862,-3.8621,-3.8687,-3.8695,-3.8685,-3.8704,-3.8688,-3.8703,-3.8709,-3.8711,-3.8726,-3.8758,-3.878,-3.881,-3.889,-3.889,-3.8927,-3.894,-3.8951,-3.8959,-3.9,-3.9016,-3.8845,-3.8845,-3.8844,0,0,-3.8631,-3.8638,-3.8663,-3.87,-3.871,-3.8749,-3.869,-3.8735,-3.8763,-3.8715,-3.8773,-3.8775,-3.879,-3.886,-3.8891,-3.8865,-3.9007,-3.896,-3.8968,-3.8971,-3.9009,-3.9026,-3.904,-3.885,-3.8849,-3.8848,0,0,-3.8741,-3.875,-3.8805,-3.8817,-3.8833,-3.8825,-3.8839,-3.8847,-3.8846,-3.8904,-3.8869,-3.8902,-3.8959,-3.8971,-3.8984,-3.9099,-3.9069,-3.9109,-3.9174,-3.9215,-3.9228,-3.924,-3.928,-3.9294,-3.9118,-3.9118,-3.9118,0,-3.88,-3.8858,-3.8837,-3.8884,-3.89,-3.886,-3.8915,-3.8927,-3.8952,-3.8964,-3.8935,-3.9005,-3.9012,-3.9084,-3.9112,-3.9125,-3.9139,-3.9107,-3.9228,-3.924,-3.9251,-3.9288,-3.9303,-3.9123,-3.9122,-3.9122,-3.9121,0,-3.8929,-3.897,-3.9012,-3.9038,-3.9059,-3.911,-3.9097,-3.9121,-3.9104,-3.9099,-3.9158,-3.9165,-3.9196,-3.9212,-3.9195,-3.9282,-3.9265,-3.9233,-3.9179,-3.9272,-3.9306,-3.9321,-3.9129,-3.9127,-3.9126,-3.9125,0,0,-3.9081,-3.9094,-3.911,-3.912,-3.9135,-3.9166,-3.9215,-3.9245,-3.9266,-3.9285,-3.9324,-3.9373,-3.9343,-3.9359,-3.9343,-3.9379,-3.9467,-3.9342,-3.9342,-3.9364,-3.9561,-3.9585,-3.9602,-3.9449,-3.9451,-3.9453,-3.956,0,-3.9188,-3.9272,-3.9255,-3.9337,-3.9374,-3.9336,-3.9378,-3.9391,-3.9389,-3.9419,-3.9416,-3.945,-3.9409,-3.9418,-3.9452,-3.9449,-3.9506,-3.9442,-3.9484,-3.9486,-3.948,-3.962,-3.9645,-3.9744,-3.9573,-3.9575,-3.9577,0,-3.9325,-3.9348,-3.9434,-3.9442,-3.9457,-3.9495,-3.9521,-3.9551,-3.9565,-3.956,-3.9578,-3.9555,-3.9603,-3.955,-3.9615,-3.9571,-3.9588,-3.9589,-3.9593,-3.9594,-3.9536,-3.9624,-3.9776,-3.979,-3.9598,-3.9597,-3.9595,0,-3.9425,-3.9479,-3.9537,-3.9547,-3.9559,-3.9586,-3.9592,-3.9603,-3.9622,-3.9645,-3.9656,-3.9684,-3.9699,-3.9721,-3.9706,-3.967,-3.9773,-3.9719,-3.9769,-3.977,-3.9791,-3.979,-3.9947,-3.9805,-3.9805,-3.9804,-3.9804,0,-3.9546,-3.96,-3.9582,-3.9618,-3.9676,-3.9656,-3.9715,-3.9716,-3.9726,-3.9761,-3.973,-3.9763,-3.9742,-3.9773,-3.9762,-3.9817,-3.9824,-3.9821,-3.9817,-3.9823,-3.9823,-3.9832,-3.9824,-3.9808,-3.9807,-3.9807,-3.9806,0,-3.9668,-3.9658,-3.9719,-3.9725,-3.9727,-3.977,-3.9775,-3.9807,-3.9803,-3.9847,-3.9856,-3.9848,-3.9883,-3.9871,-3.9908,-3.9901,-3.997,-3.9958,-3.9965,-3.9961,-4.0012,-4.0007,-4.0178,-4.0199,-4.0045,-4.0047,-4.0048,0,-3.9745,-3.9785,-3.9796,-3.9817,-3.9825,-3.9859,-3.9878,-3.986,-3.9881,-3.99,-3.993,-3.9963,-3.9988,-4.0045,-4.0043,-4.0071,-4.0058,-4.0117,-4.0062,-4.0067,-4.0058,-4.0055,-4.0058,-4.0127,-4.0129,-4.013,-4.0131,0,-3.9883,-3.9876,-3.9905,-3.9932,-3.9956,-3.9977,-3.9994,-4.0013,-3.9996,-4.0021,-4.0057,-4.0076,-4.0114,-4.0147,-4.0172,-4.0177,-4.0152,-4.0149,-4.0162,-4.0167,-4.0169,-4.0168,-3.9993,-4.0145,-4.0143,-4.0142,-4.0142,-4.0141,-3.9984,-4.0017,-4.003,-4.0063,-4.0074,-4.0091,-4.0122,-4.0121,-4.0151,-4.018,-4.0168,-4.0209,-4.0221,-4.0252,-4.0261,-4.0293,-4.027,-4.0289,-4.0293,-4.0298,-4.0304,-4.0166,-4.0297,-4.0297,-4.0297,-4.0296,-4.0296,0,-4.0119,-4.0125,-4.0155,-4.0181,-4.0207,-4.0181,-4.0199,-4.0222,-4.0259,-4.0273,-4.0298,-4.0338,-4.0369,-4.0369,-4.0398,-4.0423,-4.0412,-4.0431,-4.0428,-4.0429,-4.0323,-4.0309,-4.0439,-4.0439,-4.0439,-4.0439,-4.0439,-4.0439,-4.0192,-4.0247,-4.0242,-4.0302,-4.0308,-4.0347,-4.036,-4.0375,-4.0386,-4.0433,-4.0459,-4.0458,-4.0466,-4.0495,-4.0522,-4.0521,-4.0533,-4.0557,-4.0551,-4.0451,-4.0437,-4.0423,-4.041,-4.0559,-4.056,-4.0655,-4.0655,-4.0656]},{"header":{"parameterUnit":"m.s-1","parameterCategory":1,"la1":30.2991,"la2":30.254,"lo1":-89.0895,"lo2":-89.0444,"dy":0.0017,"dx":0.0017,"nx":28,"ny":28,"refTime":"2023-09-05T09:00:00:Z","depth":0,"parameterNumber":3,"parameterNumberName":"V-component_of_WINDS"},"data":[0,0,0,0,0,0,0,0,0,0,0,0,0,0,0,0,0,0,0,0,0,0,0,0,0,0,0,0,0,0,0,0,0,0,0,0,0,0,0,0,0,0,0,0,0,0,0,0,0,0,0,0,0,0,0,0,0,0,4.9657,4.9658,0,4.9711,4.9712,4.9712,4.965,4.9648,4.9646,4.9644,4.9694,4.9697,4.9701,0,0,0,0,0,0,0,0,0,0,0,0,0,4.9496,4.95,4.9657,4.9658,4.9659,4.9711,4.9712,4.9712,4.9651,4.9648,4.9645,4.9642,4.9693,4.9697,4.9701,0,0,0,0,0,0,0,0,0,0,0,0,0,4.956,4.9501,4.9657,4.9634,4.9633,4.9711,4.9712,4.9712,4.9651,4.9648,4.9644,4.9641,4.9691,4.9696,4.9702,4.9803,0,0,4.9718,4.972,0,0,0,0,0,0,0,0,4.9556,4.9566,4.9637,4.9636,4.9634,4.967,4.9673,4.9743,4.9652,4.9644,4.9643,4.9639,4.9689,4.9694,4.9711,4.9806,4.9808,4.9718,4.9721,4.9724,4.9725,0,0,0,0,0,0,0,4.9552,4.9563,4.9678,4.9638,4.9636,4.962,4.9625,4.9686,4.9685,4.9645,4.964,4.9648,4.9687,4.9706,4.9712,4.9808,4.9718,4.9723,4.9726,4.9728,4.9987,4.9991,0,0,0,0,0,0,4.9551,4.956,4.9676,4.968,4.9586,4.9625,4.9631,4.9662,4.9684,4.9684,4.9651,4.9645,4.9699,4.9706,4.9714,4.9833,4.9723,4.9728,4.9731,4.9984,4.9988,4.9992,0,0,0,0,0,0,4.9548,4.9562,4.9674,4.9619,4.9632,4.9632,4.9667,4.9665,4.9684,4.9689,4.9688,4.9671,4.9697,4.9706,4.9781,4.9833,4.9731,4.9736,4.9979,4.9985,4.999,5.0072,0,0,0,0,0,0,4.9543,4.9561,4.9601,4.962,4.9635,4.9743,4.9671,4.9669,4.9694,4.9687,4.9707,4.9707,4.9695,4.9774,4.9787,4.9839,4.974,4.9974,4.9982,4.9988,5.0065,5.008,5.0093,0,0,0,0,0,4.9538,4.9621,4.9603,4.9617,4.9685,4.9746,4.9754,4.9739,4.9699,4.9738,4.974,4.9707,4.9827,4.9782,4.9796,4.9851,4.9971,4.998,4.9988,5.0059,5.0077,5.0093,0,0,0,0,0,0,4.9606,4.9623,4.9603,4.9696,4.972,4.9736,4.9784,4.976,4.9795,4.9786,4.9765,4.977,4.985,4.9858,4.9808,4.9949,4.9892,4.9903,4.9941,4.9958,4.9972,4.9967,4.9744,0,0,0,0,0,4.9632,4.9682,4.9694,4.9774,4.9787,4.9784,4.981,4.9797,4.982,4.983,4.9838,4.9861,4.9903,4.9932,4.9971,5.0067,5.0069,5.0111,5.0125,5.0137,5.0146,5.0195,5.0214,5.002,5.002,5.002,0,0,4.9686,4.9701,4.9734,4.9788,4.9805,4.9855,4.9793,4.9849,4.9885,4.9838,4.9909,4.9916,4.994,5.0026,5.0064,5.0035,5.0201,5.0147,5.0156,5.016,5.0206,5.0224,5.0241,5.0026,5.0025,5.0024,0,0,4.9809,4.9827,4.9895,4.9914,4.9941,4.9939,4.9955,4.9975,4.9978,5.005,5.0015,5.0058,5.0132,5.015,5.0169,5.03,5.027,5.0314,5.0386,5.0435,5.045,5.0463,5.0508,5.0525,5.0324,5.0324,5.0324,0,4.9871,4.9947,4.9933,4.9991,5.0015,4.9977,5.0044,5.0063,5.0102,5.0118,5.0086,5.0178,5.0192,5.028,5.0312,5.033,5.0346,5.031,5.0449,5.0463,5.0475,5.0517,5.0534,5.0329,5.0328,5.0328,5.0327,0,5.0022,5.0075,5.0127,5.0167,5.0197,5.026,5.0253,5.0285,5.0269,5.027,5.0343,5.0358,5.0399,5.042,5.0405,5.0506,5.0487,5.0453,5.0394,5.0499,5.0538,5.0554,5.0336,5.0334,5.0333,5.0332,0,0,5.0188,5.022,5.0238,5.0255,5.0284,5.0323,5.0384,5.0426,5.0453,5.0482,5.0531,5.0595,5.0563,5.0585,5.0572,5.0615,5.0715,5.0574,5.0575,5.0598,5.0826,5.085,5.0869,5.0696,5.07,5.0702,5.0823,0,5.031,5.0417,5.0405,5.0506,5.0554,5.0518,5.0571,5.0593,5.0595,5.0635,5.0637,5.0682,5.0638,5.0651,5.0692,5.0694,5.076,5.0686,5.0739,5.0742,5.0732,5.089,5.0916,5.1029,5.0839,5.0841,5.0843,0,5.0466,5.0501,5.0607,5.0628,5.0647,5.0695,5.0732,5.0772,5.0795,5.0794,5.0819,5.0798,5.0857,5.08,5.088,5.0829,5.0851,5.0856,5.086,5.0862,5.0797,5.0895,5.1065,5.1082,5.0868,5.0866,5.0864,0,5.0574,5.0648,5.072,5.0737,5.0763,5.0797,5.0809,5.0829,5.0855,5.0888,5.0904,5.0943,5.0963,5.0993,5.0982,5.0941,5.1064,5.1006,5.1063,5.1063,5.1088,5.1086,5.1262,5.1106,5.1106,5.1105,5.1105,0,5.071,5.0776,5.0769,5.0814,5.0886,5.0872,5.0943,5.0951,5.097,5.1014,5.0985,5.1027,5.1012,5.1052,5.1044,5.1111,5.1121,5.112,5.1117,5.1121,5.1121,5.1133,5.1124,5.111,5.1109,5.1108,5.1107,0,5.0842,5.084,5.0917,5.0936,5.0942,5.0994,5.1009,5.105,5.1051,5.1107,5.1119,5.112,5.1166,5.1159,5.121,5.1205,5.1287,5.1276,5.128,5.1276,5.1333,5.1327,5.1521,5.1545,5.1375,5.1377,5.1378,0,5.0928,5.0977,5.1002,5.1031,5.1045,5.1091,5.1118,5.1106,5.1135,5.1166,5.1203,5.1247,5.1281,5.1356,5.136,5.1398,5.1386,5.1451,5.1391,5.1394,5.1384,5.138,5.1384,5.1462,5.1464,5.1466,5.1467,0,5.108,5.1077,5.1117,5.1157,5.119,5.1221,5.1248,5.1273,5.1263,5.1297,5.1344,5.1371,5.1424,5.1467,5.1503,5.1514,5.1488,5.1487,5.1501,5.1505,5.1505,5.1504,5.131,5.1481,5.148,5.1479,5.1478,5.1478,5.119,5.1232,5.1256,5.1301,5.1321,5.1348,5.1387,5.1394,5.1433,5.1476,5.1467,5.152,5.1542,5.1588,5.1603,5.1643,5.1619,5.1641,5.1646,5.1651,5.1657,5.1501,5.165,5.165,5.1649,5.1649,5.1649,0,5.1338,5.1352,5.1395,5.1435,5.1471,5.1446,5.1475,5.1506,5.1554,5.1577,5.1612,5.1666,5.1708,5.1716,5.1755,5.1786,5.1775,5.1796,5.1793,5.1795,5.1677,5.166,5.1804,5.1804,5.1804,5.1804,5.1804,5.1804,5.142,5.149,5.149,5.1569,5.1582,5.1635,5.1654,5.1677,5.1696,5.1758,5.1793,5.1799,5.1815,5.1856,5.1893,5.1894,5.1908,5.1934,5.193,5.1819,5.1804,5.1789,5.1772,5.1938,5.1938,5.2045,5.2046,5.2046]}]]